Downstream station:
SHEF ID: CMCO2 Tar Creek near Commerce, OK
STATION TYPE:
STAGE STAGE(2) RIV-FLOW BAT-LOAD
ft ft cfs volt
Ccp-Rev Ccp-Rev Ccp-Rev Ccp-Rev
(US/Central)
03/31 00:00 8.55 8.29 18 12.65
03/31 01:00 8.55 8.28 18 12.65
03/31 02:00 8.55 8.29 18 12.65
03/31 03:00 8.54 8.25 18 12.65
03/31 04:00 8.55 8.22 18 12.57
03/31 05:00 8.56 8.23 19 12.57
03/31 06:00 8.57 8.24 20 12.49
03/31 07:00 8.57 8.21 20 12.49
03/31 08:00 8.57 8.20 20 12.49
03/31 09:00 8.56 8.29 19 12.57
03/31 10:00 8.57 8.28 20 13.44
03/31 11:00 8.56 8.31 19 13.68
03/31 12:00 8.55 8.34 18 13.60
03/31 13:00 8.55 8.33 18 13.60
03/31 14:00 8.55 8.34 18 13.60
03/31 15:00 8.54 8.32 18 13.44
03/31 16:00 8.55 8.31 18 13.37
03/31 17:00 8.54 8.25 18 13.37
03/31 18:00 8.55 8.30 18 13.29
03/31 19:00 8.55 8.33 18 13.29
03/31 20:00 8.55 8.21 18 13.21
03/31 21:00 8.55 8.14 18 12.97
03/31 22:00 8.55 8.11 18 12.89
03/31 23:00 8.55 8.09 18 12.73